Change the Weather History Date:

Friday, January 25, 2013

  Actual Average Record
Temperature  
Mean Temperature 34 °F -  
Max Temperature 52 °F 36 °F 66 °F (2002)
Min Temperature 17 °F 15 °F -5 °F (1997)
Degree Days  
Heating Degree Days 30    
Moisture  
Dew Point 21 °F    
Average Humidity 66    
Maximum Humidity 88    
Minimum Humidity 29    
Precipitation  
Precipitation 0.00 in - - ()
Sea Level Pressure  
Sea Level Pressure 30.14 in    
Wind  
Wind Speed 6 mph (WSW)    
Max Wind Speed 13 mph    
Max Gust Speed -    
Visibility 10 miles    
Events      
Averages and records for this station are not official NWS values.
T = Trace of Precipitation, MM = Missing Value Source: NWS Daily Summary

Daily Weather History Graph

Daily Weather History Graph

Search for Another Location

Airport or City:

Trip Planner

Search our weather history database for the weather conditions in past years. The results will help you decide how hot, cold, wet, or windy it might be!

Date:

Astronomy

Jan. 25, 2013 Rise Set
Actual Time 7:55 AM CST 5:48 PM CST
Civil Twilight 7:25 AM CST 6:17 PM CST
Nautical Twilight 6:52 AM CST 6:51 PM CST
Astronomical Twilight 6:20 AM CST 7:23 PM CST
Moon 4:47 PM CST (1/25) 6:35 AM CST (1/25)
Length of Visible Light 10h 52m
Length of Day
9h 53m
Waxing Gibbous, 98% of the Moon is Illuminated
Jan 25
Waxing Gibbous
Jan 26
Full
Feb 3
Last Quarter
Feb 10
New
Feb 17
First Quarter

Hourly Weather History & Observations

Time (CST) Temp. Windchill Dew Point Humidity Pressure Visibility Wind Dir Wind Speed Gust Speed Precip Events Conditions
12:15 AM 20.1 °F 12.3 °F 14.9 °F 80% 30.08 in 10.0 mi West 5.8 mph - N/A   Clear
12:35 AM 20.3 °F 13.8 °F 15.3 °F 81% 30.09 in 10.0 mi West 4.6 mph - N/A   Clear
12:55 AM 19.2 °F - 14.5 °F 82% 30.08 in 10.0 mi Calm Calm - N/A   Clear
1:15 AM 19.4 °F 12.8 °F 14.9 °F 83% 30.08 in 10.0 mi West 4.6 mph - N/A   Clear
1:35 AM 17.2 °F 10.2 °F 13.5 °F 85% 30.09 in 10.0 mi WNW 4.6 mph - N/A   Clear
1:55 AM 18.1 °F 11.3 °F 14.5 °F 86% 30.10 in 10.0 mi WNW 4.6 mph - N/A   Clear
2:15 AM 19.4 °F 10.4 °F 15.6 °F 85% 30.11 in 10.0 mi West 6.9 mph - N/A   Clear
2:35 AM 20.5 °F 9.2 °F 16.7 °F 85% 30.11 in 10.0 mi West 10.4 mph - N/A   Clear
2:55 AM 19.8 °F 9.1 °F 15.8 °F 85% 30.11 in 10.0 mi WNW 9.2 mph - N/A   Clear
3:15 AM 18.9 °F 9.8 °F 14.9 °F 85% 30.12 in 10.0 mi West 6.9 mph - N/A   Clear
3:35 AM 18.1 °F 7.9 °F 14.9 °F 87% 30.12 in 10.0 mi West 8.1 mph - N/A   Clear
3:55 AM 19.0 °F 9.0 °F 15.6 °F 87% 30.12 in 10.0 mi West 8.1 mph - N/A   Clear
4:15 AM 19.9 °F 9.3 °F 16.9 °F 88% 30.13 in 10.0 mi West 9.2 mph - N/A   Clear
4:35 AM 20.3 °F 9.0 °F 16.7 °F 86% 30.13 in 10.0 mi West 10.4 mph - N/A   Clear
4:55 AM 20.3 °F 11.5 °F 16.7 °F 86% 30.13 in 10.0 mi West 6.9 mph - N/A   Clear
5:15 AM 20.5 °F 11.7 °F 16.9 °F 86% 30.13 in 10.0 mi West 6.9 mph - N/A   Clear
5:35 AM 20.8 °F 10.4 °F 17.8 °F 88% 30.13 in 10.0 mi West 9.2 mph - N/A   Clear
5:55 AM 21.6 °F 11.3 °F 18.1 °F 87% 30.13 in 10.0 mi West 9.2 mph - N/A   Clear
6:15 AM 21.0 °F 12.4 °F 17.2 °F 85% 30.14 in 10.0 mi West 6.9 mph - N/A   Clear
6:35 AM 19.2 °F 9.3 °F 15.8 °F 87% 30.14 in 10.0 mi West 8.1 mph - N/A   Clear
6:55 AM 19.2 °F 9.3 °F 16.0 °F 87% 30.15 in 10.0 mi West 8.1 mph - N/A   Clear
7:35 AM 19.2 °F 9.3 °F 16.2 °F 88% 30.15 in 10.0 mi WNW 8.1 mph - N/A   Clear
7:55 AM 20.3 °F 9.0 °F 17.2 °F 88% 30.15 in 10.0 mi WNW 10.4 mph - N/A   Clear
8:15 AM 20.3 °F 10.6 °F 16.9 °F 87% 30.16 in 10.0 mi WNW 8.1 mph - N/A   Clear
8:35 AM 22.6 °F 12.6 °F 18.9 °F 85% 30.15 in 10.0 mi NNW 9.2 mph - N/A   Clear
8:55 AM 25.3 °F 17.6 °F 20.5 °F 82% 30.17 in 10.0 mi NW 6.9 mph - N/A   Clear
9:15 AM 28.9 °F 21.9 °F 23.0 °F 78% 30.18 in 10.0 mi NW 6.9 mph - N/A   Clear
9:35 AM 31.3 °F 25.6 °F 24.1 °F 75% 30.19 in 10.0 mi NW 5.8 mph - N/A   Clear
9:55 AM 33.1 °F 26.9 °F 24.4 °F 71% 30.20 in 10.0 mi WNW 6.9 mph - N/A   Clear
10:15 AM 35.2 °F 27.6 °F 24.6 °F 65% 30.20 in 10.0 mi WNW 10.4 mph - N/A   Clear
10:35 AM 37.6 °F 29.6 °F 25.0 °F 60% 30.21 in 10.0 mi WNW 12.7 mph - N/A   Clear
10:55 AM 40.1 °F 32.7 °F 25.3 °F 56% 30.21 in 10.0 mi WNW 12.7 mph - N/A   Clear
11:15 AM 42.1 °F 37.1 °F 25.7 °F 52% 30.21 in 10.0 mi WNW 8.1 mph - N/A   Clear
11:35 AM 43.3 °F 40.7 °F 25.5 °F 49% 30.20 in 10.0 mi NW 4.6 mph - N/A   Clear
11:55 AM 45.1 °F - 25.5 °F 46% 30.18 in 10.0 mi Calm Calm - N/A   Clear
12:15 PM 46.6 °F - 25.2 °F 43% 30.18 in 10.0 mi Calm Calm - N/A   Clear
12:35 PM 47.7 °F - 24.6 °F 41% 30.18 in 10.0 mi West 5.8 mph - N/A   Clear
12:55 PM 49.5 °F - 23.2 °F 36% 30.17 in 10.0 mi WSW 5.8 mph - N/A   Clear
1:15 PM 50.2 °F - 22.5 °F 34% 30.16 in 10.0 mi WSW 6.9 mph - N/A   Clear
1:35 PM 50.5 °F - 22.5 °F 33% 30.15 in 10.0 mi WSW 4.6 mph - N/A   Clear
1:55 PM 52.2 °F - 22.3 °F 31% 30.14 in 10.0 mi SSW 11.5 mph - N/A   Clear
2:15 PM 52.3 °F - 21.6 °F 30% 30.13 in 10.0 mi SW 10.4 mph - N/A   Clear
2:35 PM 52.0 °F - 20.3 °F 29% 30.13 in 10.0 mi WSW 6.9 mph - N/A   Clear
2:55 PM 50.9 °F - 20.3 °F 30% 30.13 in 10.0 mi WSW 8.1 mph - N/A   Clear
3:15 PM 49.6 °F - 21.2 °F 33% 30.13 in 10.0 mi SW 6.9 mph - N/A   Clear
3:35 PM 50.9 °F - 21.9 °F 32% 30.12 in 10.0 mi SW 6.9 mph - N/A   Clear
3:55 PM 51.8 °F - 21.7 °F 31% 30.12 in 10.0 mi WSW 6.9 mph - N/A   Clear
4:15 PM 49.8 °F - 21.7 °F 33% 30.12 in 10.0 mi SW 8.1 mph - N/A   Clear
4:35 PM 49.1 °F - 22.6 °F 35% 30.12 in 10.0 mi SSW 6.9 mph - N/A   Clear
4:55 PM 49.1 °F - 22.5 °F 35% 30.12 in 10.0 mi SW 8.1 mph - N/A   Clear
5:15 PM 46.8 °F - 23.0 °F 39% 30.11 in 10.0 mi SW 9.2 mph - N/A   Clear
5:35 PM 44.2 °F 41.8 °F 23.0 °F 43% 30.12 in 10.0 mi SSW 4.6 mph - N/A   Clear
5:55 PM 44.1 °F 41.5 °F 23.7 °F 45% 30.12 in 10.0 mi SE 4.6 mph - N/A   Clear
6:15 PM 42.8 °F 40.1 °F 23.4 °F 46% 30.12 in 10.0 mi South 4.6 mph - N/A   Clear
6:35 PM 37.9 °F 34.4 °F 22.8 °F 55% 30.12 in 10.0 mi SSE 4.6 mph - N/A   Clear
6:55 PM 38.8 °F 35.4 °F 23.7 °F 55% 30.13 in 10.0 mi SE 4.6 mph - N/A   Clear
7:15 PM 37.0 °F 34.5 °F 23.9 °F 59% 30.13 in 10.0 mi SSE 3.5 mph - N/A   Clear
7:35 PM 36.9 °F 34.3 °F 23.7 °F 59% 30.13 in 10.0 mi SE 3.5 mph - N/A   Clear
7:55 PM 32.2 °F 28.9 °F 22.5 °F 67% 30.13 in 10.0 mi ESE 3.5 mph - N/A   Clear
8:15 PM 32.4 °F 26.9 °F 23.7 °F 70% 30.13 in 10.0 mi ESE 5.8 mph - N/A   Clear
8:35 PM 31.1 °F 27.7 °F 22.1 °F 69% 30.13 in 10.0 mi ESE 3.5 mph - N/A   Clear
8:55 PM 33.8 °F 29.6 °F 23.9 °F 67% 30.12 in 10.0 mi SE 4.6 mph - N/A   Clear
9:15 PM 33.1 °F 28.7 °F 23.9 °F 69% 30.12 in 10.0 mi ESE 4.6 mph - N/A   Clear
9:35 PM 28.0 °F 24.2 °F 22.8 °F 81% 30.12 in 10.0 mi East 3.5 mph - N/A   Clear
9:55 PM 28.0 °F 21.7 °F 22.3 °F 79% 30.12 in 10.0 mi ESE 5.8 mph - N/A   Clear
10:15 PM 27.3 °F 20.9 °F 22.6 °F 83% 30.12 in 10.0 mi East 5.8 mph - N/A   Clear
10:35 PM 27.5 °F 20.2 °F 23.0 °F 83% 30.12 in 10.0 mi East 6.9 mph - N/A   Clear
10:55 PM 27.5 °F 21.1 °F 23.0 °F 83% 30.12 in 10.0 mi ESE 5.8 mph - N/A   Clear
11:15 PM 27.3 °F 20.9 °F 23.2 °F 84% 30.12 in 10.0 mi East 5.8 mph - N/A   Clear
11:35 PM 27.3 °F 22.0 °F 22.8 °F 83% 30.13 in 10.0 mi ESE 4.6 mph - N/A   Clear
11:55 PM 28.0 °F 22.8 °F 23.0 °F 81% 30.13 in 10.0 mi ESE 4.6 mph - N/A   Clear